GFSWCAN_sfc_30mbdewp_048.txt.gz
Dewpoint
39 38 37 38 39 39 39 40 40 40 40 40 41 41 42 41 45 44 42 45 40 37 40 46 45 34 34 35 35 43 42 43 42 35 33 32 27 30 30 30 27 26 29 29 29 22 22 32 25 21 27 34 34 34
39 39 39 39 39 40 39 40 40 40 40 40 41 43 45 45 45 42 40 45 46 42 42 45 44 44 44 38 42 46 39 41 43 38 39 37 33 33 32 30 35 27 26 26 29 27 34 36 32 36 36 36 38 39
40 39 39 39 39 40 40 39 39 41 42 42 43 44 45 45 45 41 42 44 42 38 40 42 41 48 50 48 47 41 44 46 46 47 43 41 33 34 29 29 32 33 38 34 32 36 38 39 40 40 39 36 35 36
40 40 40 40 40 40 40 39 40 43 41 41 42 43 45 44 45 42 40 44 40 42 37 38 48 50 52 51 47 45 43 48 50 46 42 39 34 38 31 33 30 33 32 31 37 37 38 38 37 35 35 35 35 35
41 41 41 41 41 41 41 42 42 42 42 43 44 45 45 45 45 44 44 45 47 42 38 39 46 51 53 52 49 52 45 47 43 38 34 35 40 38 37 35 31 34 30 29 31 38 35 35 36 36 35 35 35 34
42 42 41 41 41 41 41 42 42 43 43 44 44 45 45 44 45 43 38 42 46 47 41 37 44 49 52 52 51 51 50 49 47 42 41 41 43 35 30 29 37 39 39 38 37 37 35 36 36 36 35 35 34 33
41 41 41 41 41 42 42 42 43 44 44 44 44 44 44 44 44 40 37 45 47 47 41 37 40 48 51 50 48 49 49 47 46 44 42 39 42 38 34 31 37 38 37 37 36 35 34 35 34 35 34 33 32 31
41 41 41 41 42 42 42 42 41 42 43 43 44 45 44 45 44 42 45 50 49 44 41 39 39 42 48 44 43 47 44 43 43 42 41 39 41 36 33 37 37 36 36 36 36 36 35 34 33 32 32 32 32 32
41 41 41 40 41 40 39 39 39 41 43 43 43 44 46 44 43 41 45 49 49 46 40 39 38 38 43 41 42 42 40 38 41 39 40 38 37 35 35 36 35 35 35 34 34 34 33 32 32 32 32 32 31 27
43 42 41 42 41 40 40 40 41 42 44 44 45 44 39 43 50 48 45 43 43 42 39 38 40 38 41 39 39 38 38 37 36 38 39 34 32 34 36 36 36 35 34 34 32 32 32 31 31 32 32 30 28 26
46 45 45 45 44 44 43 44 45 46 46 45 43 43 48 49 46 43 39 36 37 33 37 39 40 39 41 37 37 37 36 34 33 35 35 33 32 34 36 36 35 35 34 34 33 33 33 32 32 30 29 28 28 28
45 46 46 46 46 46 47 47 47 47 48 47 46 48 46 42 35 31 32 34 33 31 36 37 38 40 39 39 36 35 33 32 30 36 33 31 32 35 36 35 36 35 34 33 33 33 32 31 30 29 27 27 27 27
43 43 45 47 47 47 47 48 49 48 49 45 39 36 36 34 31 27 26 30 30 34 36 37 36 38 36 36 34 33 30 29 33 30 29 30 33 34 34 34 33 33 32 31 31 31 31 31 30 27 24 24 25 23
40 41 42 43 45 47 48 48 47 42 40 36 33 31 31 29 28 29 30 31 32 34 36 36 36 36 35 34 33 30 32 32 26 25 26 31 33 33 33 31 30 30 30 29 29 29 28 28 27 26 24 22 20 17
37 38 39 40 42 42 41 39 39 38 35 32 31 27 27 30 31 32 32 33 33 36 36 36 35 35 33 31 32 30 28 26 26 26 30 33 32 31 30 29 29 28 29 29 28 27 26 24 22 21 21 19 20 19
35 33 36 40 39 40 40 39 37 37 35 31 30 30 31 31 30 30 31 32 34 35 36 35 32 30 30 30 28 27 25 25 28 30 33 34 31 29 29 30 31 31 29 28 27 25 23 21 20 20 19 15 15 16
35 34 38 39 37 38 38 36 35 32 32 29 28 31 31 30 29 30 31 32 35 35 33 31 29 28 32 29 27 27 26 28 30 32 33 32 29 31 31 31 31 30 29 29 28 25 21 18 19 20 16 16 16 17
35 36 39 37 36 35 36 34 33 31 28 30 27 29 31 30 30 30 31 34 34 33 33 30 33 26 24 24 25 27 29 30 32 32 31 31 32 32 32 31 31 30 28 26 23 22 20 18 14 16 18 17 16 17
36 37 37 36 34 33 31 32 31 27 29 30 31 31 31 31 31 31 31 32 33 33 31 27 22 21 22 26 27 28 29 30 29 30 31 32 32 31 30 30 29 28 26 23 20 18 17 16 15 16 17 16 14 16
34 35 36 36 33 30 29 30 32 30 27 30 31 30 30 29 30 28 28 28 28 27 23 21 21 22 24 27 30 30 30 31 30 28 28 29 30 29 28 26 25 24 22 18 16 16 16 16 16 17 15 12 11 13
32 34 35 33 32 32 31 30 31 31 31 29 31 31 29 26 22 22 21 24 21 23 22 24 23 24 26 28 29 31 31 31 30 29 26 24 26 26 25 25 24 20 19 17 16 15 14 14 14 14 11 10 10 13
32 35 30 30 27 27 26 28 29 31 30 30 29 29 27 26 24 21 21 21 21 23 24 23 23 23 22 23 24 26 28 28 27 27 26 25 23 22 20 20 19 18 18 17 16 14 14 12 11 12 9 7 9 9
31 29 27 24 22 22 22 26 23 25 24 25 25 24 25 25 28 24 19 19 20 22 25 24 23 23 21 22 23 23 25 23 21 21 20 19 18 18 18 18 18 16 15 16 16 14 13 11 10 8 5 5 6 5
29 26 24 23 22 21 20 21 24 23 22 20 20 19 21 25 22 17 15 15 17 19 20 21 21 19 18 17 17 17 21 21 19 19 20 17 15 15 15 14 14 14 14 13 11 10 8 7 5 4 3 3 3 4
18 20 18 18 21 19 18 17 18 19 18 19 18 19 21 22 17 14 12 13 14 14 16 18 16 16 15 14 15 16 19 17 15 13 15 17 15 14 13 12 11 11 10 7 5 5 4 4 3 3 3 3 5 5
18 22 19 19 21 19 20 17 19 21 20 18 19 21 21 12 9 9 12 14 13 14 14 15 15 13 13 13 12 12 14 18 13 11 12 13 13 13 12 9 8 7 7 4 2 1 2 2 3 1 0 3 4 3
18 19 22 26 25 24 20 21 19 18 17 16 18 16 16 9 8 11 16 17 15 15 16 16 15 14 13 13 14 14 14 13 12 11 11 10 9 7 4 2 2 5 7 4 2 2 4 3 3 1 -0 1 1 1
24 24 20 20 18 19 19 18 17 15 15 18 16 9 7 7 7 14 14 18 17 17 15 15 14 12 9 8 8 9 11 13 12 11 9 8 7 6 7 8 7 10 9 8 7 6 6 5 4 3 2 2 2 1
22 23 19 16 16 17 18 18 17 18 20 19 10 8 7 9 10 12 14 16 16 14 11 10 11 10 8 6 5 3 2 2 3 2 2 1 0 2 5 6 7 6 5 6 5 5 6 5 5 4 2 1 3 3
18 21 16 15 16 16 19 17 15 16 16 12 10 9 8 9 10 12 12 11 9 8 8 8 8 6 6 5 4 5 3 1 1 -1 -3 -1 0 2 3 3 3 3 3 2 3 4 4 2 1 1 2 1 -1 -0
17 16 17 16 16 19 19 16 13 11 9 8 6 3 5 8 9 10 10 9 9 7 5 4 4 4 5 4 3 1 2 3 3 3 2 3 1 0 -0 -1 -1 -0 -1 -0 0 -0 -1 -1 -1 -1 -1 -1 -1 -3
15 16 16 15 15 17 21 19 18 15 14 11 10 7 8 4 2 6 10 6 5 5 4 4 5 6 6 3 2 2 2 2 3 3 3 4 3 1 -0 -0 -1 -3 -3 -3 -4 -3 -4 -4 -3 -3 -2 -2 -3 -5
15 12 11 13 15 16 15 17 15 11 11 10 10 8 6 3 2 6 9 6 3 2 1 2 4 6 4 1 -1 -1 -0 -1 -0 1 3 3 2 2 -0 -1 -2 -3 -3 -3 -3 -5 -5 -5 -6 -6 -5 -5 -5 -7

GFSWCAN_sfc_30mbdewp_054.txt.gz
Dewpoint
43 43 43 43 44 44 43 42 42 40 41 41 41 40 41 41 41 41 40 42 40 37 38 42 41 37 35 34 31 33 35 39 40 34 33 33 30 31 30 31 32 28 27 26 26 24 22 27 24 20 22 28 30 32
41 41 41 41 41 41 41 40 40 41 41 41 41 40 41 41 41 41 38 44 43 38 39 41 41 41 40 37 35 39 33 37 36 37 35 33 31 31 30 27 31 30 30 28 29 28 32 31 27 30 30 31 33 34
40 40 41 41 40 40 41 40 41 41 40 41 40 40 41 41 41 39 37 38 41 37 36 37 37 42 44 43 43 35 41 43 42 42 37 35 33 32 28 29 31 31 33 29 30 33 35 38 38 37 37 35 37 38
39 39 40 40 40 40 40 39 39 39 38 39 39 38 41 40 40 41 39 39 41 36 32 34 45 43 46 46 44 45 43 47 46 44 40 37 34 37 31 32 31 32 34 33 33 36 37 37 36 36 36 37 36 34
40 40 39 39 39 39 39 39 39 39 38 39 39 40 41 40 40 40 41 41 43 34 32 36 39 42 45 48 49 48 47 45 43 39 38 37 38 37 37 36 33 35 33 30 27 33 32 33 36 36 36 36 35 33
40 40 40 40 40 40 40 40 40 41 41 41 39 41 40 41 42 39 36 43 44 39 34 31 39 40 44 50 51 49 48 45 42 39 37 38 41 38 34 32 34 35 36 36 32 38 36 36 36 35 34 34 34 33
40 40 39 39 40 40 40 41 41 41 41 40 41 41 41 41 41 38 35 39 44 43 36 31 34 40 49 49 47 47 47 45 43 40 38 39 40 37 31 30 32 38 38 38 37 36 35 35 34 34 33 33 32 31
41 40 39 40 41 40 40 41 39 40 41 41 41 41 42 42 40 35 42 42 44 41 37 31 32 38 46 44 43 45 43 43 42 41 39 39 39 35 33 35 37 36 36 36 35 35 35 34 33 32 31 30 30 29
41 42 42 41 40 40 41 39 41 43 44 43 44 42 41 38 35 34 46 42 44 37 33 33 33 33 43 41 41 41 41 39 41 40 39 39 36 35 35 35 36 35 35 34 34 34 33 32 31 31 30 30 29 28
42 42 42 42 43 43 43 44 44 44 43 41 39 37 32 36 43 45 43 39 36 37 40 35 38 34 41 38 38 38 37 36 36 38 39 37 36 35 35 36 36 35 33 33 32 30 31 30 30 30 29 28 28 28
42 42 42 43 43 43 43 43 43 43 42 39 37 36 41 45 40 38 34 35 35 34 37 36 37 37 41 37 36 36 34 34 33 35 37 34 35 35 36 36 36 35 34 34 34 32 32 31 29 28 27 28 28 28
43 43 42 42 42 42 42 42 42 40 39 40 41 43 43 40 37 32 31 33 33 31 35 35 37 39 39 40 36 35 33 32 31 36 34 32 34 36 36 36 35 35 34 33 33 32 32 30 28 28 27 27 26 24
41 42 42 41 41 41 41 42 42 43 43 41 41 36 36 33 30 29 27 29 30 33 35 36 35 36 37 38 33 32 30 31 34 33 32 31 34 35 36 36 36 36 34 33 33 32 31 30 30 29 27 25 23 21
42 42 42 42 41 41 41 42 42 41 41 35 33 28 29 27 27 28 30 31 32 33 34 35 34 34 34 33 31 30 32 31 28 27 26 31 33 34 34 34 33 32 31 31 30 29 28 27 26 25 24 20 19 18
42 42 42 42 42 42 43 43 43 41 36 32 31 26 27 30 31 31 32 32 33 34 34 34 34 34 32 30 30 30 28 25 25 24 29 32 32 32 32 31 31 30 29 28 27 26 25 25 22 19 17 17 18 18
42 41 41 45 45 44 44 42 40 37 32 31 29 27 29 28 28 29 30 31 33 33 34 32 32 31 30 30 28 26 24 23 26 29 31 31 31 30 30 30 30 30 29 28 26 25 24 22 19 17 17 17 16 16
40 38 41 44 43 42 42 38 34 31 29 27 26 28 28 28 26 28 29 29 32 34 31 31 28 26 31 26 23 25 23 25 29 30 31 31 30 29 29 28 28 28 27 26 25 22 21 20 19 16 15 16 15 15
36 37 42 42 40 39 37 36 31 29 27 29 25 26 26 26 24 25 27 30 31 31 29 24 27 21 19 20 21 25 27 28 29 29 29 30 30 30 29 27 27 26 26 25 24 23 22 22 20 17 17 16 15 14
36 37 39 41 38 34 31 31 31 25 26 27 26 26 26 24 26 27 27 29 30 28 26 22 16 15 15 21 20 24 28 28 27 27 28 30 30 29 28 28 27 25 24 24 23 22 22 20 18 18 18 18 17 14
32 33 34 35 33 30 29 29 32 28 26 27 26 22 21 20 21 21 21 23 22 21 17 15 14 16 17 19 22 26 29 30 27 23 22 24 25 25 24 23 22 22 21 20 19 19 18 16 14 14 15 15 15 12
28 29 29 30 29 30 30 30 29 30 30 26 27 26 23 19 15 14 14 16 14 17 15 17 17 19 21 22 23 23 22 23 22 23 21 19 21 21 20 20 20 19 17 16 15 15 15 14 14 13 12 12 12 11
28 29 23 24 22 23 24 26 30 31 29 29 28 27 24 19 18 17 13 12 13 14 17 18 17 18 18 18 19 21 21 20 20 18 18 18 16 16 16 17 16 14 14 14 13 12 13 13 12 11 10 10 11 8
27 25 22 20 18 18 19 24 23 25 23 24 22 21 20 17 19 16 12 13 14 17 18 18 19 18 17 17 18 18 19 17 16 15 15 14 13 13 12 12 13 12 11 11 12 11 9 10 8 7 7 6 6 4
22 18 18 18 17 15 15 18 20 19 19 19 19 19 20 17 16 11 9 10 13 15 15 15 16 15 14 13 12 12 15 16 14 14 14 11 9 9 9 9 8 9 9 8 7 6 5 4 3 3 3 3 2 2
17 20 16 16 17 15 14 17 17 16 16 16 17 17 16 13 9 8 7 9 11 11 12 14 12 12 10 11 11 11 12 11 10 8 10 12 10 9 7 6 5 5 4 2 1 1 1 1 -0 -1 0 1 1 1
17 20 19 19 20 18 18 16 15 15 14 15 15 14 6 4 3 5 8 10 9 10 10 11 11 9 8 9 8 8 10 9 7 5 6 6 6 4 3 3 3 5 4 2 2 2 2 1 0 0 0 -0 -1 -2
16 16 17 18 20 17 14 13 11 11 11 11 11 7 3 2 3 8 12 12 10 9 8 8 8 8 8 8 8 9 8 7 6 5 5 5 4 5 3 1 1 2 4 2 2 2 2 1 0 -1 -1 -2 -2 -4
21 18 13 13 14 13 13 11 10 10 11 13 4 2 1 1 2 9 11 13 10 8 7 6 5 4 4 4 5 6 6 6 4 1 -1 -1 0 0 -0 -0 0 2 -1 -1 1 1 1 0 0 0 -1 -1 -1 -2
17 15 13 12 12 11 11 10 9 10 10 8 3 1 2 4 6 8 9 10 10 8 5 4 3 1 1 1 1 0 -1 -4 -6 -6 -6 -4 -4 -1 -3 -4 -3 -3 -5 -4 -2 1 4 3 2 -0 -1 -3 -3 -5
15 13 12 11 10 9 9 8 5 4 6 6 6 4 4 5 7 9 7 5 4 3 1 -0 -1 -0 -1 -1 -1 -1 -2 -3 -1 -2 -3 -3 -3 -2 -4 -5 -5 -5 -8 -6 -6 -6 -4 -6 -6 -8 -8 -7 -7 -7
11 12 12 12 12 10 7 4 3 2 1 2 1 -0 1 3 5 6 5 3 2 1 2 2 2 -2 0 -1 -2 -2 -2 -2 -3 -3 -4 -3 -4 -3 -4 -4 -7 -9 -10 -8 -8 -7 -7 -8 -9 -10 -10 -9 -7 -7
11 10 10 10 10 9 9 12 8 6 4 4 4 1 1 -1 -1 3 4 -0 -1 0 0 -2 1 1 -2 -4 -5 -6 -3 -3 -3 -3 -1 -2 -2 -3 -4 -5 -7 -9 -8 -9 -10 -9 -9 -9 -10 -11 -11 -11 -11 -10
8 6 8 11 10 10 11 11 8 7 6 6 5 3 1 -2 -1 1 2 -2 -2 -2 -1 -1 -3 -2 -2 -3 -2 -3 -4 -5 -6 -4 -2 -1 -2 -4 -6 -7 -8 -8 -7 -8 -9 -10 -10 -10 -11 -12 -12 -13 -13 -12

GFSWCAN_sfc_30mbdewp_057.txt.gz
Dewpoint
43 42 43 43 43 43 41 42 45 45 44 43 42 41 42 43 44 40 41 43 41 36 38 41 41 34 32 32 30 33 33 34 36 30 29 28 30 29 29 31 31 28 26 24 24 22 20 29 24 21 25 26 27 31
42 43 42 43 43 43 45 44 44 43 43 42 42 41 42 43 44 42 39 42 44 39 39 41 41 41 39 34 33 35 31 34 35 32 32 32 30 31 31 24 33 30 29 26 26 25 31 28 27 28 28 28 31 33
40 41 42 44 43 43 43 42 42 42 42 41 41 41 44 43 43 41 40 41 40 38 35 36 36 43 44 42 42 35 39 40 39 41 37 34 31 32 30 30 30 33 35 31 29 31 32 33 36 37 36 32 34 36
41 41 41 41 41 41 41 41 42 41 41 43 42 42 42 42 42 39 38 42 39 37 29 31 42 42 43 44 43 42 42 46 45 43 37 36 33 35 32 32 31 32 35 32 32 33 36 37 37 37 36 38 36 35
39 40 40 41 41 41 41 41 41 41 43 42 42 42 41 41 40 40 40 41 39 36 30 29 36 39 42 45 44 44 43 44 42 39 37 37 37 36 36 35 33 35 32 30 29 32 31 31 37 37 36 36 35 33
40 40 39 40 40 40 39 39 40 41 41 41 41 40 40 41 40 36 32 39 40 41 35 29 34 35 43 47 46 45 45 44 42 40 38 38 40 38 34 33 34 35 36 36 31 37 36 36 36 36 36 35 34 33
41 41 40 40 40 40 39 39 39 40 40 39 40 41 41 41 38 32 29 37 39 42 36 31 32 37 42 46 47 47 48 46 43 40 38 39 40 39 34 34 34 36 37 37 37 36 35 35 35 35 34 34 33 32
39 39 41 41 41 40 40 40 40 40 41 40 41 42 41 39 39 35 41 43 39 39 37 31 30 36 45 43 42 46 43 44 42 40 38 38 39 35 34 34 36 36 37 37 36 36 36 35 33 32 32 31 30 29
40 41 41 41 41 41 41 41 41 40 40 40 40 41 40 39 33 37 43 45 45 39 33 31 30 33 42 41 41 41 41 38 41 39 38 39 36 35 36 35 35 36 36 35 34 34 34 33 32 31 31 30 29 28
41 40 40 41 40 40 40 40 41 41 41 41 39 37 33 37 41 44 39 38 35 37 38 32 35 33 40 38 37 38 37 36 36 38 40 37 36 37 35 36 37 36 35 34 33 32 31 31 31 30 30 30 29 28
42 42 42 42 43 42 43 43 42 41 40 39 36 34 38 43 39 37 33 32 32 32 35 34 35 35 40 35 37 36 35 34 34 36 37 36 34 36 36 37 36 35 34 34 34 33 33 31 30 29 29 29 29 28
43 42 42 40 41 42 43 42 42 41 39 41 41 41 41 36 33 30 30 33 30 28 35 34 35 36 38 39 36 35 34 32 31 36 34 32 33 35 36 35 35 35 35 33 33 32 31 30 29 29 28 27 26 25
43 43 42 42 42 41 40 41 41 39 39 38 40 36 34 32 27 27 26 29 30 33 35 36 35 37 38 36 34 33 30 30 34 32 31 30 33 35 36 36 35 36 35 33 32 31 30 29 29 28 27 27 26 25
42 42 42 42 42 41 41 40 40 39 38 33 32 29 28 26 27 27 29 31 31 33 34 35 34 34 34 33 32 30 32 32 29 28 26 30 31 33 34 34 33 31 31 31 30 29 28 27 26 26 26 25 24 22
42 42 42 41 41 41 41 41 40 39 33 30 31 25 26 30 30 30 31 31 32 33 34 34 34 34 32 30 31 31 29 25 25 24 28 31 32 32 31 31 30 29 28 27 27 25 25 24 23 23 24 22 20 20
42 42 41 42 42 42 42 40 39 36 32 30 25 23 26 26 24 26 27 28 31 32 34 34 32 31 29 30 27 24 25 22 24 28 30 31 30 30 29 29 28 27 27 26 25 24 23 22 20 18 18 18 19 18
41 39 43 42 42 43 41 38 35 32 30 28 24 25 24 24 22 24 26 27 31 32 30 30 24 23 29 25 22 24 21 24 26 28 29 29 28 27 28 27 27 26 25 24 24 23 21 16 16 16 15 16 17 17
38 42 44 43 41 38 37 35 32 28 23 24 21 22 23 22 21 23 25 27 30 29 26 22 24 18 17 17 17 19 22 28 28 28 28 28 28 27 27 26 26 25 24 24 23 23 22 22 20 19 18 16 15 15
41 42 42 42 39 35 32 32 32 22 22 24 22 23 23 20 22 24 25 26 26 25 23 19 13 12 12 17 16 18 23 25 23 23 24 25 26 26 25 25 24 23 22 22 21 20 20 20 20 20 19 17 14 13
41 40 42 39 34 30 29 29 31 26 23 23 25 19 19 19 19 18 17 18 18 16 13 12 12 14 15 17 20 20 22 27 24 20 19 20 22 21 21 21 20 20 19 19 18 18 17 16 16 16 17 16 14 12
27 30 30 31 30 30 30 29 28 29 27 24 24 22 17 15 13 11 11 13 11 13 12 14 15 17 18 19 20 20 19 19 19 19 18 16 19 19 18 18 18 17 16 15 14 13 13 12 13 13 13 13 12 12
28 28 22 23 23 23 23 25 28 29 27 27 26 24 19 15 13 14 11 10 10 12 15 15 15 16 15 15 16 18 18 17 17 16 15 15 13 13 13 14 13 12 12 12 11 10 10 10 11 11 10 10 10 9
25 22 20 18 16 17 18 23 21 22 21 21 20 17 14 12 16 13 9 10 11 15 16 16 17 16 15 15 16 16 17 15 13 13 12 11 11 11 10 10 11 10 8 9 9 8 7 7 5 6 6 6 6 5
22 17 17 16 15 14 15 18 18 17 17 18 18 17 16 15 13 8 7 8 11 12 13 13 14 13 13 11 10 10 13 14 12 12 12 9 7 6 5 5 4 5 5 4 4 3 2 2 1 2 2 2 2 2
16 18 17 17 17 14 15 16 14 15 16 16 15 14 9 10 7 6 5 8 9 9 10 12 11 10 9 9 9 10 10 9 7 6 7 9 6 5 4 5 5 5 4 3 2 2 2 1 1 1 0 -0 0 -0
15 17 18 18 17 15 15 13 13 12 12 13 11 9 4 3 2 3 6 9 8 7 7 8 9 7 6 7 6 6 7 6 3 3 4 4 4 3 2 2 1 2 4 3 3 2 2 1 0 0 -0 -0 -2 -2
14 14 15 16 17 14 11 10 9 9 9 9 8 5 1 0 1 6 10 10 7 7 7 7 8 7 6 6 5 5 4 4 4 3 2 2 2 2 1 -0 -1 0 2 0 0 -0 -1 -1 -1 -1 -2 -1 -1 -4
17 14 11 11 10 10 10 8 8 7 8 10 2 0 -1 -1 1 6 9 9 8 5 5 5 4 4 3 3 2 3 3 2 1 0 -0 -1 -1 -1 -3 -3 -3 -2 -4 -4 -1 -1 0 -1 -1 -2 -2 -3 -3 -3
14 12 10 9 8 8 7 6 5 6 7 5 0 -1 0 3 5 7 8 9 10 6 3 1 1 -0 0 0 -1 -1 -2 -4 -6 -8 -7 -5 -4 -2 -4 -4 -4 -5 -6 -4 -3 1 1 -1 -1 -5 -7 -7 -6 -7
12 10 10 7 7 5 4 3 2 1 4 5 4 3 2 3 5 7 6 6 4 2 -0 -2 -3 -2 -2 -2 -2 -1 -3 -4 -3 -3 -4 -4 -4 -2 -5 -5 -5 -6 -9 -7 -6 -5 -5 -7 -8 -10 -10 -9 -8 -7
9 10 10 9 8 7 3 1 1 -0 -0 0 -1 -1 -1 2 4 4 3 1 -0 -1 1 1 0 -4 -1 -2 -2 -4 -4 -3 -6 -5 -5 -4 -5 -4 -5 -6 -8 -10 -10 -8 -8 -8 -7 -8 -10 -11 -11 -11 -11 -11
8 7 9 8 7 5 5 7 5 3 3 3 2 -3 -1 -1 -1 1 2 -1 1 2 -0 -3 0 1 -2 -5 -7 -7 -6 -5 -4 -4 -4 -3 -3 -5 -5 -7 -9 -10 -9 -9 -10 -9 -10 -10 -11 -11 -12 -12 -13 -13
6 5 6 8 7 6 7 8 6 5 3 3 2 0 -1 -3 -2 0 -1 -4 -2 -2 -0 -1 -2 -3 -3 -4 -3 -5 -6 -6 -8 -6 -4 -4 -5 -5 -6 -8 -9 -9 -8 -9 -10 -10 -10 -11 -11 -12 -12 -13 -13 -14

GFSWCAN_sfc_30mbdewp_063.txt.gz
Dewpoint
43 44 44 42 42 44 45 45 43 43 44 44 44 44 45 45 44 43 39 42 39 31 29 32 32 25 23 23 25 27 32 34 35 32 27 22 24 16 14 20 32 32 31 34 32 30 27 29 27 24 27 26 27 27
43 43 43 43 42 43 44 44 43 43 44 44 44 44 44 44 44 44 40 43 41 36 36 37 40 34 37 23 26 29 33 30 30 26 27 26 29 33 21 23 28 32 31 30 30 29 32 30 28 30 28 30 31 30
42 42 44 43 42 44 43 43 43 43 44 44 44 44 45 45 43 44 40 42 39 38 38 36 33 40 41 39 41 30 33 29 29 29 28 32 30 28 29 25 21 30 32 34 32 31 30 31 33 32 33 33 32 33
43 43 43 44 42 43 44 44 44 44 44 44 44 45 43 44 44 41 39 40 37 37 33 33 39 36 41 42 42 41 33 33 31 34 34 35 31 21 27 23 21 23 24 28 28 26 25 32 35 35 32 35 34 33
42 43 43 43 44 44 44 45 44 44 45 45 45 45 43 44 42 42 42 40 37 30 29 31 36 37 38 35 41 40 40 34 34 34 37 33 25 18 27 30 26 22 23 30 30 28 31 31 34 37 36 35 36 34
42 42 42 42 42 43 43 44 44 43 44 43 44 43 44 43 45 41 37 42 39 34 29 27 33 38 40 40 41 39 38 39 37 35 35 29 24 28 32 29 27 24 22 26 29 31 34 39 39 37 38 37 37 36
41 42 42 42 42 42 43 43 43 43 43 43 43 43 43 43 42 36 34 35 36 33 27 25 25 30 37 38 38 39 37 38 37 37 38 34 31 35 35 32 25 25 28 28 30 33 37 37 36 38 38 38 38 37
41 41 41 42 42 43 42 42 43 44 42 43 42 41 41 41 40 35 37 38 35 30 29 23 27 32 34 32 37 41 37 37 35 35 34 34 35 39 34 30 29 30 29 31 33 37 39 38 38 37 37 37 36 35
41 41 41 41 41 42 42 42 42 42 42 40 37 35 35 34 32 36 40 39 41 33 25 32 27 29 39 34 38 40 39 35 38 35 36 35 34 33 32 29 29 31 32 33 33 34 37 37 37 36 36 36 35 35
41 41 41 41 40 41 41 41 41 40 37 34 34 31 29 37 42 40 39 34 30 31 35 30 33 33 38 38 38 39 40 37 34 38 37 35 34 32 33 38 37 37 39 38 38 38 37 37 37 36 35 35 35 34
40 41 41 41 41 41 42 41 39 37 38 36 33 34 39 41 38 36 32 30 32 30 32 30 31 31 38 32 36 39 37 37 33 37 37 35 34 35 37 38 39 39 39 38 38 37 37 37 37 36 36 35 34 34
43 40 41 41 41 40 40 39 39 38 39 40 38 36 37 35 34 30 29 30 28 23 31 31 33 34 34 33 37 36 35 35 32 38 35 31 31 34 36 37 36 37 37 36 36 36 36 36 36 35 33 30 28 28
42 40 41 40 39 39 39 39 40 39 41 42 35 34 34 32 27 27 23 26 27 33 35 36 35 35 35 39 36 36 33 32 36 33 29 28 31 32 33 34 32 33 33 32 32 32 31 30 29 29 28 28 27 25
40 40 40 40 39 39 39 38 39 39 38 34 32 28 29 28 27 27 26 31 33 35 37 37 35 35 36 35 34 31 32 34 30 29 26 28 29 30 30 30 29 27 28 27 27 27 27 26 27 28 28 27 26 25
41 41 41 41 41 39 39 39 39 37 32 28 26 22 24 27 28 28 28 31 31 34 38 36 35 36 33 32 32 32 30 27 25 24 26 28 29 29 27 27 26 26 26 26 27 26 26 26 25 25 26 26 25 24
40 39 40 41 40 40 39 38 37 36 31 25 21 21 21 24 23 24 25 25 28 29 37 36 32 31 29 30 28 25 26 20 23 26 28 29 27 28 27 27 28 28 28 27 26 25 25 24 24 24 25 24 24 23
39 37 41 40 39 39 39 36 32 28 26 24 22 23 22 21 20 22 25 25 29 30 29 31 25 24 29 24 20 21 19 21 25 27 27 28 27 27 27 27 27 27 26 25 25 25 25 25 24 21 20 21 21 21
40 42 40 40 38 38 36 34 28 26 21 22 20 22 22 21 20 21 24 26 29 28 24 21 22 17 16 16 15 18 22 25 24 24 24 25 26 27 27 26 26 26 25 25 25 24 23 22 21 21 21 21 20 19
41 42 41 40 40 37 33 32 27 21 22 23 22 22 23 21 23 24 25 26 26 26 22 19 14 11 13 15 16 19 23 24 21 21 22 23 24 24 23 24 23 22 22 22 22 22 22 22 22 21 21 20 18 18
42 41 40 38 35 32 31 30 26 23 22 23 25 21 20 20 21 20 20 21 20 18 15 12 11 13 14 16 20 20 24 25 22 18 18 19 20 20 21 21 20 20 19 19 20 20 18 17 17 17 17 17 16 15
38 37 35 35 32 30 30 28 26 24 25 24 24 18 18 17 16 15 14 11 12 12 10 14 15 16 18 19 20 20 19 19 19 18 17 16 18 18 18 18 19 18 17 16 15 15 15 14 15 15 15 15 14 14
34 28 31 30 28 28 27 29 27 30 26 23 19 18 18 16 14 12 10 9 11 14 15 14 15 16 14 14 16 17 18 17 17 16 16 16 14 14 15 15 14 14 13 13 12 10 9 10 10 10 11 11 9 7
28 28 29 29 26 26 24 25 24 23 21 21 19 16 15 15 12 11 10 10 13 17 18 17 16 16 15 17 16 16 17 15 14 13 13 13 13 13 12 11 10 8 7 6 6 7 7 6 7 8 7 7 7 6
26 27 25 24 23 22 25 22 20 20 20 19 15 14 14 13 13 10 8 10 13 14 14 17 18 16 14 13 11 12 14 14 13 13 12 10 7 6 6 6 7 7 6 6 6 6 6 6 5 5 4 4 3 3
18 20 22 20 22 20 19 19 19 18 16 16 14 13 13 13 10 8 8 10 12 12 15 14 14 15 12 12 11 9 6 7 6 6 7 8 8 6 4 3 3 3 6 6 6 5 4 4 4 3 2 1 1 1
17 18 17 18 18 18 18 16 16 16 16 14 14 13 14 10 7 7 8 11 11 11 13 14 13 11 8 7 5 5 6 6 5 4 3 4 5 6 4 4 3 2 4 5 5 4 2 2 1 1 1 1 -1 -0
16 17 16 16 17 17 17 16 15 14 13 13 13 11 10 7 6 7 9 11 10 11 12 13 9 6 4 4 4 5 4 4 2 1 1 1 2 2 3 2 1 2 3 3 3 3 2 1 0 0 -0 0 0 -0
15 14 13 14 13 13 12 12 11 11 11 11 10 8 6 6 6 10 10 11 11 10 9 7 7 6 6 7 7 7 6 6 5 4 4 3 3 3 3 3 2 1 2 2 3 1 1 1 -0 -1 -1 -1 -1 -0
15 15 10 8 10 9 9 10 9 8 8 10 8 6 4 4 10 10 11 11 11 9 7 6 7 8 7 5 5 5 6 6 1 -1 1 2 2 2 2 2 2 2 2 2 1 1 0 -0 -1 -1 -1 -0 -0 0
15 16 10 8 7 8 9 10 9 9 8 7 5 4 5 6 8 11 11 11 10 10 9 8 8 8 7 7 4 3 4 4 5 4 2 1 1 1 2 2 2 1 1 1 0 0 -1 -1 -1 -1 -2 -2 -2 -3
16 15 10 9 8 10 10 10 10 9 8 8 8 7 5 6 7 8 8 9 8 8 8 7 7 7 6 3 3 2 2 2 1 1 2 1 1 2 1 0 1 1 1 -0 -1 -1 -2 -2 -2 -2 -3 -4 -5 -5
14 13 10 8 8 10 11 12 10 9 9 8 7 6 6 7 5 7 8 8 8 8 6 7 6 6 4 3 3 2 1 2 1 1 0 1 1 1 1 -0 0 0 -0 -1 -2 -2 -3 -3 -3 -4 -4 -4 -5 -6
13 12 11 10 9 9 10 12 9 8 8 7 7 7 7 7 5 8 7 8 10 9 7 7 7 5 3 2 3 2 2 2 1 1 0 -0 -1 -1 0 1 0 -0 -2 -2 -2 -2 -3 -4 -4 -5 -5 -5 -6 -6

GFSWCAN_sfc_30mbdewp_069.txt.gz
Dewpoint
43 43 44 45 44 44 44 44 44 44 44 44 44 45 44 43 43 43 41 42 41 36 35 35 32 30 29 29 27 28 25 27 32 28 29 30 27 29 25 30 28 28 27 27 30 30 28 31 27 24 27 27 27 31
43 43 44 43 44 44 44 45 45 44 43 43 43 43 44 43 43 43 38 43 47 41 38 42 40 41 40 39 31 29 26 31 35 32 35 29 26 23 22 17 33 28 32 30 31 30 33 34 34 32 34 33 35 33
43 43 44 44 44 44 42 44 45 45 44 43 45 44 44 43 44 42 40 44 44 39 39 39 37 39 40 41 41 32 29 38 38 40 37 31 25 30 20 20 18 32 35 32 31 33 39 39 44 40 37 36 35 35
43 44 44 45 44 44 44 43 43 44 45 45 44 44 43 44 44 42 43 44 42 39 33 36 42 39 42 42 39 39 41 42 38 39 37 36 27 31 27 27 25 33 35 34 35 36 36 36 40 35 37 39 38 39
43 44 45 45 45 44 44 43 43 45 44 44 44 44 45 44 42 43 44 44 44 38 31 36 39 40 45 39 40 41 41 39 39 37 37 36 33 31 31 31 28 29 32 34 31 35 33 32 35 33 32 35 38 39
43 44 44 44 45 45 45 45 44 45 45 45 45 46 45 44 43 43 38 43 46 44 37 32 37 36 36 37 37 39 40 41 38 37 37 38 37 32 24 23 27 27 26 27 23 25 34 39 41 38 36 39 39 38
43 43 44 44 45 45 44 44 44 44 44 44 44 45 44 44 42 38 36 40 45 43 36 33 32 35 36 36 37 39 40 41 38 39 38 38 37 35 28 26 27 28 29 31 31 32 32 34 38 39 38 38 38 38
43 43 43 44 45 44 44 44 44 44 45 44 45 44 44 43 42 38 41 43 43 40 38 27 31 34 36 35 35 37 37 37 37 38 38 37 38 36 26 32 31 37 38 37 39 36 32 37 39 38 38 37 37 37
43 43 42 43 43 43 43 43 43 44 44 44 43 43 41 40 37 36 39 40 42 37 30 30 28 29 38 34 35 36 36 31 39 35 36 38 34 32 35 36 36 37 38 39 41 40 39 38 38 37 37 37 36 36
43 43 42 42 42 43 43 43 43 43 43 42 40 36 34 38 41 39 35 34 34 32 34 29 33 32 37 36 35 34 35 30 30 33 35 34 32 33 34 36 35 35 36 37 38 37 38 38 37 35 34 34 33 29
42 42 41 41 41 41 40 39 39 40 40 40 35 35 38 41 39 34 30 28 29 27 30 29 32 33 36 32 32 35 31 33 26 28 29 30 27 29 32 33 32 34 34 34 34 34 34 36 34 32 30 28 27 25
40 40 39 39 39 40 40 41 40 39 40 37 35 39 39 35 32 28 28 28 25 24 29 29 34 35 33 36 34 33 31 32 25 34 26 25 25 29 28 28 28 30 31 31 32 31 30 30 28 27 26 25 24 23
39 39 39 40 40 40 40 39 39 39 42 40 36 33 31 29 26 23 21 25 28 30 33 34 31 32 34 35 31 32 29 30 35 29 22 23 26 26 27 27 26 27 27 27 27 27 26 26 25 24 23 24 23 22
40 40 40 40 39 39 38 38 38 39 36 33 30 23 25 22 23 22 23 25 29 29 28 32 33 32 32 31 31 29 31 31 26 21 18 23 25 26 27 27 25 25 26 25 25 25 24 24 23 24 23 23 22 21
39 39 39 39 39 38 38 37 34 31 28 23 23 21 21 25 25 25 27 27 28 28 28 34 34 35 31 30 31 29 27 19 19 17 21 24 26 27 26 26 26 25 25 25 24 23 22 22 21 21 22 22 21 21
39 38 39 39 37 37 38 33 31 32 28 20 20 19 20 18 17 22 23 24 27 27 28 31 32 30 28 26 21 18 18 14 16 20 24 25 25 25 25 26 25 25 24 23 23 22 22 21 21 21 22 21 21 21
41 38 39 39 39 35 34 32 27 23 23 23 20 21 21 19 19 22 25 24 27 27 27 28 21 22 27 19 16 19 15 17 20 20 21 22 24 24 24 24 24 23 23 23 22 22 22 22 21 20 19 21 21 20
38 39 39 39 40 36 33 29 24 21 18 21 18 20 21 21 20 21 23 25 27 27 23 19 18 14 14 13 13 17 19 19 19 20 20 21 21 22 22 21 22 22 22 23 23 23 23 22 20 20 21 21 20 19
40 39 39 38 37 34 29 29 26 20 22 23 23 23 22 20 22 22 23 22 20 20 19 14 10 10 11 14 15 17 20 19 17 18 18 20 21 20 20 20 20 19 19 19 18 18 17 18 18 18 18 18 18 17
39 39 38 36 36 31 29 29 28 25 22 22 23 20 19 19 20 18 16 17 16 13 11 9 10 12 14 16 17 17 21 21 18 15 15 17 18 17 17 18 17 17 17 17 17 17 16 15 15 15 15 14 13 14
39 38 36 36 32 32 31 27 26 27 25 25 24 23 21 16 12 12 12 11 11 13 11 13 13 16 18 18 19 17 16 16 16 16 14 13 15 15 15 15 15 14 13 13 13 13 14 14 11 11 10 11 13 11
36 34 34 34 29 30 29 29 29 29 25 24 22 20 18 16 14 12 11 11 12 13 15 14 15 15 14 15 16 17 17 16 16 15 15 14 13 13 13 14 13 12 12 11 11 10 11 11 12 13 10 8 8 7
33 33 30 30 25 25 24 28 23 24 22 20 18 17 16 15 13 14 11 13 16 18 17 16 16 17 16 17 17 17 17 15 14 14 14 14 14 14 13 13 12 10 10 10 10 10 9 7 7 8 8 9 8 6
30 28 26 25 23 22 24 21 22 20 18 16 15 14 16 16 14 11 9 12 16 16 19 18 16 13 12 12 12 13 16 17 15 14 14 11 9 8 8 9 11 12 10 9 9 9 9 5 3 2 3 3 3 3
14 17 22 19 22 20 18 16 17 16 15 15 14 15 16 14 11 11 10 12 13 16 14 14 15 13 11 12 13 13 11 12 11 8 11 12 7 6 6 6 7 8 11 7 5 4 3 5 2 -0 -1 0 1 1
15 17 18 18 18 18 17 15 15 15 15 14 15 15 14 10 8 8 10 12 12 14 15 14 11 9 9 9 8 8 8 7 6 5 5 6 8 9 6 4 4 6 8 7 5 2 2 2 3 3 1 1 -0 -2
15 16 18 18 19 19 17 16 15 13 14 14 15 13 11 7 6 9 13 14 13 15 14 14 11 9 8 8 7 7 7 6 5 5 6 5 5 4 3 2 2 4 6 3 3 2 1 -0 -0 1 -0 -1 -0 0
15 16 13 14 13 14 11 11 10 10 10 12 12 8 7 7 6 12 13 13 12 11 11 10 10 10 10 11 13 11 7 6 6 6 6 6 7 6 3 3 5 3 1 2 0 0 0 -0 -0 -1 0 1 2 3
15 13 10 9 9 10 11 11 10 9 10 12 10 8 7 11 14 12 13 13 12 12 11 10 10 9 8 7 7 7 7 7 6 4 5 2 2 4 4 4 1 3 6 2 3 0 -1 -2 -3 -1 0 -0 -2 -3
16 14 9 8 7 7 10 12 13 13 10 7 7 8 8 10 13 16 15 16 14 12 13 12 12 11 9 5 4 3 3 3 4 5 3 1 2 4 3 4 4 3 2 1 1 3 -1 -1 2 2 -2 -3 -4 -6
17 13 9 9 8 10 11 12 12 11 10 10 9 5 6 8 9 10 12 11 10 10 9 10 10 8 6 5 5 4 1 1 0 1 3 4 4 1 1 2 -0 1 3 -0 -0 -2 -3 -3 -2 -1 -3 -3 -3 -5
16 12 8 7 8 13 15 15 14 12 13 10 8 7 9 9 7 9 10 12 12 10 11 11 6 5 4 3 2 2 3 1 2 3 1 1 1 0 2 3 2 2 -1 -2 0 -0 -2 -3 -3 -3 -3 -4 -4 -4
14 12 11 10 10 12 11 15 10 10 11 10 10 11 9 9 6 8 9 11 11 12 9 8 5 4 4 6 2 3 3 1 1 1 -1 -2 -3 -3 -2 -2 -4 -3 -0 -0 -1 -0 -0 -0 -2 -3 -4 -4 -4 -4

GFSWCAN_sfc_30mbdewp_072.txt.gz
Dewpoint
42 43 43 44 44 44 44 44 44 44 44 44 44 44 43 43 43 43 41 42 38 33 36 31 32 30 29 29 26 27 27 28 31 24 21 26 25 25 27 28 28 28 28 27 28 27 24 34 31 26 31 31 32 32
43 43 44 44 44 44 44 44 43 45 44 44 44 44 43 44 44 43 39 42 41 37 37 41 34 33 30 30 30 29 27 28 29 27 32 29 27 27 25 22 32 27 28 26 28 26 34 40 39 40 39 36 36 35
43 43 44 45 45 44 44 42 44 44 44 44 44 44 44 44 44 43 40 41 41 36 38 37 35 40 42 40 38 29 31 35 36 37 34 34 30 28 23 23 22 31 35 30 31 34 34 38 38 41 42 39 38 38
43 45 45 45 44 44 43 43 45 45 45 44 45 45 44 44 44 42 40 41 39 36 32 35 42 39 44 42 41 40 36 40 38 37 32 31 30 34 25 24 22 22 34 31 32 35 37 37 38 38 39 40 37 38
44 44 45 45 45 45 44 44 44 44 44 44 45 45 45 44 44 41 41 42 41 37 33 36 38 40 43 43 41 42 39 37 37 33 33 31 36 33 34 33 28 34 35 31 30 33 33 33 37 40 39 36 37 39
44 44 45 45 44 44 45 44 44 44 45 44 44 45 44 44 42 41 37 42 44 45 34 31 39 38 40 41 42 39 41 40 38 36 36 37 40 36 33 24 26 30 29 34 26 29 36 34 34 37 30 32 38 38
43 44 45 44 45 44 45 44 44 44 44 44 44 44 43 43 43 38 35 40 46 45 36 33 33 38 39 41 40 40 41 39 36 36 35 36 36 36 33 31 36 37 39 39 40 33 34 37 38 39 39 38 38 38
44 44 44 44 44 44 44 45 44 45 45 44 44 44 43 45 44 41 43 43 44 38 36 30 33 34 36 35 33 38 37 36 35 36 37 35 36 37 33 35 36 36 37 38 38 40 33 39 39 38 38 37 37 36
42 43 43 43 44 44 45 44 43 43 44 44 43 44 42 41 38 40 45 43 44 35 26 30 28 30 37 36 35 36 35 31 35 33 34 35 35 30 29 31 34 35 34 35 38 39 39 38 37 37 37 37 33 29
41 41 41 41 40 41 42 44 43 43 43 42 39 37 35 39 43 42 37 33 31 32 33 28 33 31 35 35 34 33 33 30 29 32 37 33 28 30 31 32 32 33 34 34 35 35 36 35 34 33 31 29 28 26
41 41 41 41 41 41 41 41 41 42 42 36 36 35 38 40 37 33 29 27 28 24 29 29 33 32 35 32 32 34 31 30 26 29 30 30 24 26 29 30 30 31 32 32 33 31 30 32 30 28 26 25 24 23
40 41 41 41 41 40 39 40 39 39 39 34 35 39 37 33 29 26 27 27 27 28 33 32 33 32 33 35 32 33 31 30 24 33 27 21 23 26 26 26 27 29 29 28 29 28 28 27 26 25 24 23 23 22
40 40 40 40 40 39 38 38 40 40 41 38 33 30 26 25 19 21 22 24 26 28 29 32 31 32 32 33 30 32 30 29 34 25 18 20 23 25 26 25 25 26 25 24 24 24 24 23 23 22 22 22 22 21
39 39 38 39 39 38 36 33 33 33 31 28 23 20 20 19 21 21 22 23 27 27 27 30 31 30 30 29 30 29 30 26 21 16 14 21 24 26 26 26 24 23 23 22 22 21 21 21 20 21 21 21 20 19
39 38 38 39 39 38 34 31 31 27 24 21 20 17 17 20 20 24 25 26 27 27 27 32 32 33 31 30 26 25 21 15 16 14 19 22 24 24 24 23 22 22 22 21 21 21 21 21 20 20 21 21 21 20
40 37 38 40 39 36 36 29 28 29 24 17 18 16 17 14 15 18 22 23 25 26 28 30 30 29 24 19 16 17 13 11 14 17 20 23 22 22 22 23 23 22 22 21 21 21 20 20 19 19 19 19 19 19
39 36 39 39 40 33 32 28 23 21 21 20 17 19 18 16 17 18 22 22 26 25 25 26 18 18 23 17 14 16 12 15 17 18 20 21 21 22 22 22 22 22 21 21 21 21 21 21 21 18 17 18 19 18
37 38 39 38 39 35 32 26 23 20 18 20 16 19 19 19 17 18 21 21 23 25 20 16 16 11 11 10 10 15 16 17 18 18 18 19 20 20 20 19 19 19 18 18 19 19 20 20 18 18 18 18 17 16
39 39 38 37 37 31 27 27 23 19 20 21 19 19 19 19 19 19 19 19 17 17 14 10 7 8 9 12 12 16 17 16 14 15 15 16 18 18 18 18 17 17 17 16 16 15 15 16 16 17 18 16 14 14
39 38 36 36 35 30 27 26 27 22 20 20 20 15 14 15 15 14 14 14 13 12 9 8 9 11 12 14 15 19 18 18 14 12 12 14 15 15 14 15 15 15 15 15 15 15 14 13 13 14 13 12 11 10
36 35 35 35 32 32 29 27 26 24 23 22 22 21 14 13 11 10 10 11 9 11 9 12 12 15 16 16 17 16 15 15 15 13 12 11 14 14 14 14 14 13 12 12 11 12 11 10 10 11 10 9 9 8
32 34 32 31 29 28 26 29 28 28 23 21 23 19 15 13 10 10 10 10 11 12 14 13 14 14 13 14 15 16 16 15 15 14 15 14 12 12 12 13 11 10 11 10 10 9 9 11 10 8 7 7 7 6
32 31 28 25 23 22 23 26 22 24 21 17 17 16 16 12 14 12 9 12 13 15 15 14 14 15 14 16 15 15 15 13 12 12 12 12 12 13 12 12 12 10 9 10 8 7 6 6 7 7 6 5 4 2
27 25 24 23 22 21 19 19 21 19 16 15 14 14 17 13 11 7 8 11 14 17 15 14 13 11 11 11 11 12 14 14 13 12 13 11 9 9 9 9 10 10 9 9 7 4 2 2 2 2 2 1 1 1
14 16 18 17 19 17 15 14 15 14 13 14 12 14 16 12 10 9 8 10 12 13 14 15 13 12 9 9 10 11 13 11 9 7 10 8 7 7 6 7 7 8 7 3 4 2 -1 -1 -1 -1 -1 1 1 -0
14 18 18 18 17 17 17 15 15 14 14 13 14 15 9 6 5 5 8 9 10 11 12 10 10 9 9 10 8 8 8 8 7 5 6 7 9 4 3 2 2 4 5 1 0 2 1 0 -1 -1 -1 -3 -2 0
13 14 16 16 18 17 14 13 13 11 11 11 13 9 6 4 2 7 12 12 11 12 14 13 11 9 7 6 7 7 7 7 6 4 4 4 4 3 1 -0 1 3 2 1 -1 -1 0 -0 -2 -2 -2 -2 -3 -4
15 12 10 9 9 11 8 7 7 7 8 12 7 5 4 3 4 10 12 12 12 12 12 11 11 11 10 10 10 8 6 7 7 7 6 5 4 3 4 4 2 2 -1 -2 -2 -2 -2 -2 -1 0 1 1 1 -1
11 11 8 6 6 7 8 8 8 9 9 10 6 4 5 10 11 11 11 10 11 11 9 7 7 7 5 4 3 4 5 6 4 3 0 -1 -1 3 1 0 3 4 1 1 2 -1 -4 -4 -2 -1 -1 -3 -6 -6
13 10 6 5 4 4 9 11 9 8 8 7 8 8 7 8 11 14 14 14 12 11 10 9 9 5 2 -1 -3 -1 -1 -1 0 0 -1 -1 -0 2 2 2 3 1 -1 -0 1 -2 -2 -1 2 1 -2 -4 -6 -6
13 9 7 6 6 8 10 8 7 6 5 4 3 4 5 7 8 10 11 11 9 8 8 6 5 3 4 3 1 -2 -3 -0 1 2 2 0 -2 -1 -0 -2 -2 1 -2 -2 -2 -3 -4 -5 -4 -3 -4 -4 -4 -5
11 6 4 4 7 10 12 11 11 8 8 6 6 4 6 5 4 7 9 10 11 10 7 3 3 2 -0 1 -1 -2 -1 -0 0 1 0 -1 -2 -2 -0 1 1 -2 -4 -3 -1 -0 -2 -3 -4 -4 -5 -6 -6 -5
9 8 7 7 8 8 10 11 8 10 8 8 8 8 7 6 3 6 9 9 9 7 6 3 2 1 1 2 3 2 1 -0 -2 -1 -3 -4 -5 -4 -5 -7 -8 -5 -3 -3 -3 -2 -1 -2 -2 -3 -4 -5 -6 -7

GFSWCAN_sfc_30mbdewp_075.txt.gz
Dewpoint
42 42 43 43 43 44 45 44 44 45 44 44 45 44 44 44 43 42 39 43 36 33 35 34 33 31 30 29 26 28 27 28 29 25 25 24 23 24 22 26 28 26 28 28 30 28 27 34 33 28 32 34 35 36
42 43 43 44 45 45 45 45 45 44 44 44 44 44 44 44 43 43 38 42 41 37 37 41 36 33 31 30 28 29 25 28 29 26 26 26 24 26 24 19 29 25 28 24 28 28 31 38 36 39 39 37 36 36
43 43 44 44 45 45 44 43 44 44 43 43 43 44 45 44 44 43 40 41 40 37 34 35 37 35 33 31 32 27 31 34 34 34 33 31 25 27 22 24 21 24 34 31 31 32 35 35 40 42 41 39 38 36
43 44 44 45 45 45 45 45 45 44 44 44 44 44 44 45 44 43 39 41 38 36 30 34 42 40 40 37 34 33 33 39 37 37 31 30 26 32 26 24 25 24 31 31 31 33 37 37 38 36 39 41 38 37
44 44 44 45 45 45 44 45 45 45 45 44 44 44 44 44 44 42 41 41 39 33 28 33 40 41 45 43 40 39 37 37 36 33 31 27 33 33 34 32 30 33 33 30 23 26 32 30 32 36 37 40 37 38
45 44 44 45 44 44 44 44 44 44 44 44 44 44 44 44 43 40 36 41 42 41 33 30 39 39 42 42 41 41 40 40 36 32 33 36 39 32 29 26 34 36 36 37 37 39 34 35 36 38 38 33 39 38
44 45 45 45 45 45 44 44 45 44 45 44 44 44 45 43 40 37 34 39 42 40 33 32 34 38 41 40 39 39 40 40 38 36 34 34 35 35 31 27 34 35 35 35 38 38 34 36 35 39 38 39 37 35
42 42 42 44 44 44 45 44 45 45 44 44 45 44 43 42 40 39 43 45 43 37 36 31 32 35 37 35 35 39 36 36 37 36 37 34 37 36 32 31 33 34 34 35 35 35 39 39 39 40 40 38 33 31
42 42 42 43 43 43 43 43 44 44 44 44 44 43 41 40 39 41 44 44 45 39 28 29 28 29 37 35 36 36 35 29 34 33 33 33 33 28 27 29 30 31 32 33 34 37 37 36 35 34 34 32 29 26
41 41 42 42 42 42 43 42 43 44 44 44 41 36 32 40 45 45 42 36 33 31 31 31 33 32 35 34 33 33 32 30 29 31 35 31 27 28 28 29 29 30 31 33 31 33 31 33 30 28 27 27 25 23
41 41 41 42 42 41 42 42 41 41 41 37 36 33 40 43 38 32 28 26 25 22 30 32 33 31 35 30 31 33 30 30 26 29 29 27 21 23 26 26 27 29 30 30 32 30 30 29 27 26 24 23 22 21
40 40 40 40 39 40 41 41 41 40 38 35 36 38 36 28 24 24 25 27 29 27 31 32 31 32 34 35 31 33 29 30 24 31 26 17 21 25 24 25 25 27 26 26 27 26 26 25 25 24 23 22 21 21
39 40 40 39 38 36 34 36 40 40 40 33 28 24 22 21 17 20 20 22 23 27 27 30 30 31 31 32 31 32 29 28 31 21 16 18 22 24 24 24 22 24 23 22 22 22 22 22 22 21 20 21 20 19
39 39 40 39 39 33 34 31 32 29 27 24 20 16 17 15 19 19 20 22 26 26 26 29 30 29 30 28 30 28 27 24 17 13 12 19 22 23 23 23 21 20 21 20 20 20 20 19 19 20 20 20 18 17
41 38 39 39 37 37 27 31 29 24 21 19 17 15 15 18 19 21 24 25 25 27 27 31 32 31 28 24 23 21 15 12 14 12 17 21 22 22 21 21 20 20 20 20 20 19 19 19 18 18 19 19 18 18
39 37 38 40 36 35 29 25 26 27 22 17 16 15 15 14 15 17 20 20 24 24 28 29 28 24 19 17 14 15 10 10 12 15 19 21 20 20 20 21 21 21 20 20 19 19 19 18 17 18 18 18 17 16
36 36 39 39 38 30 30 24 22 20 19 16 15 17 14 14 14 16 20 19 22 25 22 22 15 15 20 15 11 13 8 12 15 16 18 18 18 18 19 19 20 21 20 20 20 19 19 19 18 16 15 16 16 16
36 38 39 39 37 32 28 25 20 19 16 18 13 16 17 17 15 16 19 18 21 21 17 14 13 9 8 7 7 13 14 14 14 14 15 17 17 17 17 16 17 17 17 17 17 18 19 18 16 15 15 16 15 14
38 38 37 38 33 28 25 24 21 16 17 18 17 17 18 16 17 17 17 16 15 15 12 9 6 6 7 11 11 14 14 14 12 13 14 15 16 16 16 16 16 15 15 15 15 14 14 15 16 15 15 14 11 11
37 35 35 36 33 27 25 25 24 20 17 16 16 13 13 14 13 13 13 13 11 11 8 7 7 9 10 12 14 16 16 16 13 11 11 13 15 14 14 14 14 15 14 14 13 14 13 12 12 11 10 9 8 7
33 32 34 33 31 30 28 26 23 22 21 21 17 17 13 11 9 9 9 11 10 9 7 10 11 13 15 15 16 16 16 15 14 13 11 11 14 13 13 13 13 13 11 11 10 10 10 9 10 9 7 6 6 6
31 34 29 28 26 26 26 28 26 25 22 20 22 18 14 10 8 10 9 8 9 10 12 12 13 13 12 12 14 15 15 14 14 13 14 13 11 11 11 12 11 10 9 9 9 8 9 8 7 7 5 3 3 3
30 28 25 23 21 21 22 26 21 23 18 17 16 15 13 10 12 11 10 11 11 14 14 13 13 14 13 15 14 14 14 12 11 11 11 10 11 12 11 11 11 9 7 7 7 7 7 6 5 4 2 -1 -3 -2
24 21 21 22 20 18 17 18 20 16 15 14 14 14 15 9 9 6 6 9 13 15 13 13 13 11 11 10 10 11 12 13 12 12 12 10 8 8 9 9 9 9 8 5 4 3 3 2 2 1 -1 -3 -4 -3
14 17 16 16 17 15 14 13 13 12 12 13 12 14 14 10 7 6 5 8 10 10 12 13 11 10 8 8 10 10 12 11 9 7 9 8 8 7 6 6 6 6 5 0 -0 -1 -1 -1 -1 -1 -1 -1 -1 -2
14 17 17 17 16 15 15 14 14 14 12 13 13 12 5 3 2 3 6 8 9 10 10 10 9 9 9 9 8 7 8 10 7 6 6 8 6 4 3 2 2 3 3 -1 -2 -2 -2 -3 -2 -1 -1 -1 -2 -2
12 13 14 13 15 14 11 10 9 8 9 9 10 7 3 1 0 6 10 11 10 12 14 13 11 8 7 7 7 8 6 6 5 4 4 4 3 3 0 -0 1 3 1 -1 0 -0 -2 -3 -3 -3 -3 -5 -5 -3
12 9 8 7 7 8 6 5 5 5 7 10 3 2 2 1 2 8 10 11 12 13 12 11 11 10 8 8 7 6 6 5 4 3 3 3 3 2 1 1 1 0 -3 -4 -4 -3 -2 -3 -2 -1 -1 -0 -0 -5
9 9 5 3 4 6 6 5 6 8 9 7 3 2 4 8 8 10 11 12 12 11 8 7 5 5 4 3 2 3 4 3 2 1 -1 -2 -2 1 -0 -0 1 -1 -2 0 2 -3 -3 -2 -2 -1 -2 -5 -6 -8
10 7 4 3 3 4 7 7 7 6 7 7 7 7 6 7 9 11 11 10 8 6 6 5 3 -0 -2 -1 1 1 -1 -2 1 3 1 -2 -2 0 -1 1 2 0 -1 -0 -1 -4 -0 -1 1 -2 -3 -4 -6 -6
9 6 5 5 6 8 6 4 4 3 2 3 1 2 4 6 8 8 9 8 8 7 7 6 4 1 -1 -2 -4 -4 -3 0 -3 -3 -3 -2 -1 -1 -2 -3 -3 -5 -4 -3 -4 -5 -5 -4 -3 -3 -3 -4 -5 -6
5 3 3 4 6 10 10 10 7 6 4 4 4 1 3 2 2 5 8 7 7 7 5 2 3 2 -0 -2 -4 -4 -3 -0 -0 -1 -1 -1 -1 -3 -4 -3 -3 -5 -5 -3 -3 -2 -2 -3 -4 -5 -5 -6 -7 -7
6 5 5 6 7 7 9 8 7 8 5 5 6 4 4 2 2 4 6 4 7 7 5 3 -1 -2 -1 -1 -1 -2 -2 -2 -4 -2 -5 -5 -4 -4 -7 -9 -7 -5 -3 -4 -4 -3 -3 -3 -4 -5 -6 -7 -8 -9

GFSWCAN_sfc_30mbdewp_081.txt.gz
Dewpoint
40 41 41 41 42 42 43 44 44 44 45 44 43 43 43 43 42 41 38 42 36 32 34 36 35 34 32 31 29 31 31 33 32 28 27 28 26 24 20 20 27 29 28 28 29 27 24 34 35 30 34 38 38 37
40 41 41 42 43 43 44 44 44 44 45 45 44 44 44 43 43 42 37 42 40 35 36 42 40 39 32 32 30 32 29 30 31 29 29 28 26 26 24 17 24 19 29 28 30 28 32 35 35 38 41 40 38 39
42 43 44 44 44 44 45 45 44 45 45 45 45 44 44 44 44 42 38 40 38 33 35 36 35 38 39 35 34 31 32 32 32 33 30 28 24 27 22 23 21 22 29 27 27 28 32 31 36 38 39 39 42 42
44 44 45 45 45 45 45 44 45 45 44 44 45 45 44 44 44 43 39 41 37 36 30 30 36 34 38 38 35 33 32 36 35 34 30 29 24 28 24 23 24 23 25 26 29 30 33 31 35 38 39 40 39 40
44 44 44 44 44 45 44 44 44 44 44 44 45 44 45 45 44 44 43 41 39 33 28 26 38 37 33 35 37 35 33 32 35 33 31 28 30 31 32 30 27 32 30 29 26 36 37 36 37 39 39 40 40 40
43 44 44 44 45 45 45 44 45 45 45 44 45 44 45 45 44 40 34 40 39 39 33 27 36 40 40 37 37 35 35 35 34 32 30 32 35 31 27 26 34 35 34 34 34 35 35 36 38 36 37 34 32 32
43 44 44 45 44 45 44 44 45 45 45 45 44 44 45 45 41 36 34 38 40 38 31 26 31 39 42 40 38 36 36 36 35 33 33 33 35 33 30 28 31 31 31 32 33 34 35 36 35 33 34 30 28 27
43 43 43 45 44 44 44 43 44 43 44 44 44 44 42 42 43 40 42 40 39 36 35 28 30 35 39 35 36 40 36 36 36 35 37 35 36 34 29 28 28 28 29 32 30 32 34 33 30 29 30 30 27 25
42 43 43 44 44 43 43 43 43 44 44 44 43 43 41 39 38 39 41 40 41 34 28 30 28 28 37 33 34 35 36 32 35 33 34 35 32 20 22 24 25 26 27 28 29 32 31 31 27 25 26 26 25 24
41 43 43 43 43 43 43 43 42 41 40 39 38 36 32 39 42 40 38 35 35 35 34 29 33 31 35 32 31 32 31 30 28 31 35 26 21 25 24 25 24 25 25 26 26 27 28 28 26 24 23 22 22 22
41 40 41 41 41 42 43 42 41 39 39 38 34 33 41 41 37 34 30 30 30 28 31 32 32 31 34 30 30 32 29 29 25 29 29 22 17 20 23 23 22 23 23 24 25 27 27 26 25 23 22 22 21 20
40 39 37 37 38 41 41 41 41 40 40 39 37 36 31 26 23 26 26 29 28 26 29 30 30 33 33 34 31 31 28 28 24 28 20 14 18 20 19 20 20 21 21 21 22 23 23 23 24 22 20 19 19 18
39 38 37 36 35 35 40 41 41 41 37 28 24 19 19 17 14 17 18 20 21 23 26 30 28 30 30 32 31 30 26 23 25 17 13 15 18 18 18 18 18 19 19 19 19 19 20 19 20 19 17 18 17 16
39 39 37 36 33 32 31 36 39 30 23 18 15 12 12 11 15 15 17 20 24 24 25 29 29 28 29 26 26 21 21 21 14 10 10 14 18 19 19 19 17 18 18 17 17 18 17 17 16 17 17 17 15 13
38 38 37 35 34 29 31 27 24 22 19 15 14 12 13 16 17 18 20 22 21 23 27 30 25 22 18 18 19 18 14 10 11 9 13 17 18 18 18 17 17 17 17 16 17 16 15 15 15 15 16 15 14 13
37 35 36 37 31 30 27 25 24 22 19 14 13 13 13 14 13 14 16 17 20 20 24 23 20 16 15 13 10 10 9 7 9 13 15 17 16 17 17 18 18 18 18 17 17 16 15 14 13 13 14 13 13 12
35 33 37 39 31 24 27 21 19 18 16 13 12 15 13 12 12 14 15 15 17 20 17 15 13 13 14 9 8 10 8 11 13 13 15 16 15 16 16 17 17 18 17 17 16 16 15 16 15 13 11 13 13 12
33 35 38 36 31 27 22 21 17 15 13 14 10 14 14 14 13 13 15 15 17 16 14 13 12 9 8 7 7 11 11 12 13 12 13 14 15 15 16 15 15 16 15 15 15 16 15 14 12 12 11 12 10 10
36 37 37 32 29 25 20 20 16 12 14 15 15 15 15 13 13 13 14 14 15 14 12 9 6 5 6 9 10 12 13 13 11 12 12 13 14 15 15 14 14 14 13 13 12 11 11 12 12 12 12 11 8 8
34 34 34 33 29 25 22 21 20 15 12 12 14 10 10 9 11 10 10 11 9 9 6 5 5 7 8 10 13 13 14 14 12 10 10 12 13 13 13 13 13 13 12 12 12 12 11 9 9 9 9 7 7 6
30 31 30 30 28 27 24 21 19 17 16 14 14 16 10 11 9 9 8 9 7 7 5 8 9 11 12 13 15 15 14 14 13 12 10 10 12 12 12 12 12 12 11 10 9 8 8 7 6 6 6 6 6 5
29 30 25 26 26 25 24 24 20 21 20 19 18 13 9 7 8 9 9 6 7 8 10 10 11 11 10 10 12 13 13 13 13 12 13 12 10 10 10 11 10 9 9 9 8 7 6 5 5 5 4 4 4 3
27 25 22 20 19 20 22 25 19 20 14 14 15 10 6 5 9 9 8 8 9 13 13 12 12 13 12 13 12 12 13 11 10 10 10 10 10 10 10 10 10 8 7 6 6 5 3 2 2 3 2 1 0 -0
21 18 17 15 16 15 14 15 16 13 13 14 12 11 9 8 7 5 5 8 11 13 12 12 12 10 10 9 9 10 11 11 10 10 11 9 7 7 6 5 6 6 7 6 4 3 1 0 -0 -0 -2 -3 -3 -4
12 14 14 14 13 12 11 10 10 10 11 11 10 10 8 6 3 3 3 7 8 8 9 11 10 9 7 8 8 9 11 10 8 6 8 7 6 5 4 4 3 3 5 3 1 -0 -2 -3 -3 -3 -3 -3 -3 -3
10 12 12 13 12 12 12 11 10 10 10 9 7 3 1 0 -0 1 4 7 8 9 8 9 9 8 8 8 7 7 7 9 7 5 5 6 6 4 3 2 2 2 0 1 0 -1 -2 -3 -3 -3 -3 -4 -5 -4
10 10 10 8 11 8 6 6 6 6 6 8 5 2 -2 -3 -2 3 9 10 9 11 11 12 12 9 7 5 5 5 5 5 5 4 3 2 2 2 2 1 1 2 1 -1 -1 0 -0 -1 -2 -2 -2 -4 -4 -3
7 5 3 2 3 3 2 2 3 3 4 6 -1 -2 -2 -2 0 6 8 10 11 9 8 7 7 6 5 4 3 3 3 3 2 2 1 1 0 -1 -2 -1 -1 -2 -2 -2 -2 -3 -2 -2 -2 -2 -2 -1 -2 -7
4 4 1 1 1 2 1 2 2 5 6 1 -1 -1 1 5 5 8 9 10 11 8 5 5 3 2 2 1 -1 -0 0 2 2 1 0 -1 -3 0 -2 -2 -2 -2 -2 0 -0 -2 -3 -3 -2 -1 -2 -2 -4 -8
4 3 1 0 0 -0 1 1 3 2 3 4 6 6 5 4 5 8 9 9 8 6 4 3 1 1 2 1 2 1 -2 -4 -1 2 1 1 -1 -2 -2 -1 -1 -3 -3 -1 -0 -0 2 -2 -4 -5 -4 -4 -4 -4
5 3 2 2 2 3 2 -1 -2 -2 -2 0 -1 1 1 2 6 5 5 3 2 1 2 2 3 -3 -1 -1 -0 -1 -1 -2 -7 -6 -5 -5 -4 -2 -2 -4 -5 -6 -4 -3 -3 -4 -4 -4 -4 -3 -4 -4 -5 -7
2 1 2 2 3 5 3 4 2 2 1 3 2 -4 -0 1 2 3 2 3 5 6 4 3 5 4 -1 -3 -7 -7 -6 -3 -3 -4 -3 -3 -3 -5 -6 -6 -7 -6 -4 -4 -5 -4 -4 -3 -4 -4 -4 -4 -6 -7
3 3 4 4 5 5 4 3 2 3 1 1 0 -3 -3 -1 1 2 0 -3 3 6 5 2 -1 -3 -4 -3 -1 -3 -5 -4 -6 -3 -5 -4 -5 -6 -7 -8 -8 -7 -5 -5 -6 -6 -5 -6 -5 -6 -7 -8 -9 -9

GFSWCAN_sfc_30mbdewp_087.txt.gz
Dewpoint
41 42 43 43 44 44 44 42 42 42 42 42 42 42 42 42 41 42 39 41 38 34 29 30 26 24 25 29 31 37 34 34 32 28 26 22 20 18 16 17 28 24 24 25 22 17 19 30 32 33 37 41 41 44
42 41 41 43 44 45 45 45 44 43 43 43 43 43 43 42 42 42 37 40 41 35 34 37 33 34 30 26 32 36 28 34 32 30 25 25 23 23 19 18 23 25 27 26 20 20 36 31 37 36 37 37 37 38
42 41 43 44 44 45 44 44 45 45 45 44 44 44 44 44 42 42 39 40 38 32 34 36 34 35 37 37 34 30 33 33 33 31 33 30 25 24 24 20 26 20 31 34 32 34 36 32 37 35 34 35 35 36
41 42 43 44 44 45 45 45 45 45 45 45 44 44 44 44 44 42 40 40 36 35 30 30 34 34 36 37 36 36 32 35 37 35 36 31 28 24 23 24 24 23 27 21 20 33 32 37 35 35 35 35 34 35
42 42 44 44 44 44 44 44 45 44 45 45 45 45 45 45 45 43 42 40 35 30 30 26 34 33 36 36 35 36 37 38 39 36 34 30 28 27 27 27 24 31 32 28 32 34 34 32 35 34 33 34 33 33
41 43 44 44 44 43 44 44 44 44 44 45 45 45 45 45 45 41 33 40 36 35 35 27 29 33 34 36 35 35 40 39 38 37 35 31 31 29 28 26 32 31 32 33 33 32 33 35 34 33 33 33 33 32
42 43 43 43 43 44 44 44 45 45 45 45 44 44 45 45 43 35 34 38 39 39 35 30 29 31 34 35 36 36 38 39 37 36 35 34 33 32 31 29 29 28 29 31 30 31 32 33 32 31 30 32 33 31
42 44 43 43 43 44 45 44 45 45 45 44 43 45 45 44 41 38 41 41 40 37 36 28 29 32 34 33 32 37 37 38 38 37 35 32 33 36 29 26 25 25 26 29 27 28 32 31 30 28 28 28 31 29
42 43 42 42 42 43 43 44 44 44 44 44 45 44 41 39 37 40 41 40 39 35 28 31 26 26 34 36 36 36 38 31 37 34 32 35 32 25 23 24 23 23 23 24 25 27 28 28 28 27 26 26 27 27
40 39 41 43 42 42 42 42 42 42 41 41 40 36 32 39 42 41 39 35 36 34 33 29 27 30 35 34 33 33 35 32 29 33 36 33 24 24 22 22 22 22 22 23 23 25 25 26 26 26 24 24 24 24
39 37 41 41 43 42 41 40 40 41 42 38 36 34 40 41 39 36 31 31 31 30 31 28 29 31 36 30 31 35 32 32 27 30 30 26 21 20 20 20 21 21 21 22 22 23 24 24 24 24 22 21 20 19
38 37 36 35 37 41 39 39 40 39 39 37 37 36 35 33 32 30 28 31 26 26 32 30 32 33 35 37 33 33 30 31 26 31 29 21 18 17 18 18 18 19 20 20 20 21 22 22 23 21 20 18 17 17
38 37 35 32 33 38 39 32 33 37 35 31 27 25 25 24 24 26 23 25 27 27 30 31 30 34 34 35 33 33 29 26 30 27 19 18 17 18 17 17 17 18 18 18 18 19 19 19 20 19 18 18 18 17
37 36 33 33 37 36 33 28 27 26 25 22 23 19 21 20 20 20 22 24 27 27 28 29 31 31 32 30 31 25 26 29 23 20 16 18 18 19 18 17 17 17 17 18 17 17 16 16 16 16 16 17 16 14
37 31 32 31 31 29 28 26 25 24 23 21 20 18 18 21 22 23 25 27 25 26 29 31 31 30 27 25 25 26 23 18 17 16 18 18 18 17 17 17 16 16 17 17 17 15 16 16 15 15 16 17 16 15
38 37 29 31 28 27 26 24 23 23 21 19 18 21 21 24 22 22 22 23 25 26 30 29 27 24 21 21 18 17 17 15 15 17 19 18 16 16 17 16 17 18 17 17 16 15 14 14 14 14 15 14 14 13
36 35 31 31 27 24 24 22 20 18 18 18 18 19 22 20 19 19 21 21 23 26 24 23 20 18 18 16 13 13 14 15 17 17 16 17 16 16 17 18 19 17 17 17 16 16 16 17 17 15 12 13 13 13
35 37 35 27 29 24 21 20 18 17 16 20 16 19 18 18 19 19 20 20 21 20 19 17 16 14 14 13 12 13 15 16 16 16 17 18 18 19 19 17 17 17 16 16 16 16 16 16 14 13 13 13 13 13
35 35 35 36 30 23 20 20 19 17 18 19 20 19 20 19 18 18 18 17 17 17 17 15 12 11 11 17 16 17 18 18 16 16 16 17 17 17 17 17 18 17 17 16 16 15 15 17 16 15 15 14 12 12
33 33 32 30 30 21 19 20 19 18 17 17 17 16 16 16 18 18 16 14 13 12 11 10 10 14 14 17 18 17 17 17 16 15 15 17 17 17 18 19 17 18 16 16 16 16 14 13 13 13 13 11 9 7
31 30 31 27 24 23 21 19 18 17 16 17 14 15 17 17 15 14 13 11 11 10 10 13 13 14 15 17 19 17 17 19 18 18 15 15 17 18 18 18 18 18 17 16 14 14 14 12 11 11 10 10 9 7
28 29 29 26 24 22 22 21 20 19 18 16 14 15 16 15 14 12 10 10 10 11 13 13 15 15 13 13 15 16 17 16 16 15 16 17 16 16 16 17 16 15 14 15 14 13 11 8 9 9 9 8 6 5
29 27 27 25 24 21 21 26 19 17 17 15 14 13 13 13 11 10 9 8 11 13 14 13 14 15 14 15 15 15 16 15 14 14 15 15 15 16 15 15 16 15 13 11 10 10 8 6 7 8 7 7 5 4
23 24 23 23 21 20 21 17 15 15 16 14 12 11 12 12 12 10 8 9 12 12 12 14 13 12 11 12 12 13 14 12 13 13 13 13 11 10 10 10 11 11 9 7 7 7 7 6 6 6 6 5 4 4
15 15 20 18 19 16 15 15 15 14 13 13 12 11 11 11 10 8 8 9 11 12 13 12 11 12 11 11 11 11 11 11 11 9 8 8 8 5 4 3 5 5 7 8 7 7 6 5 5 4 3 3 2 2
12 14 15 16 15 15 14 14 14 13 12 11 10 10 12 10 8 7 7 11 12 13 14 14 13 11 9 9 9 9 9 9 7 6 6 6 7 8 6 5 5 5 7 8 6 5 4 4 3 2 2 1 1 1
12 12 10 10 12 13 13 13 12 12 11 11 10 9 7 5 5 7 9 11 12 13 12 14 12 10 8 4 5 6 6 7 7 5 5 4 5 6 8 7 5 5 5 6 5 5 4 3 3 2 2 3 2 2
8 9 7 10 10 9 9 9 9 9 9 6 6 5 5 5 6 10 11 13 13 11 10 9 7 6 6 6 7 8 8 8 8 6 5 4 4 5 5 6 6 6 7 7 6 5 4 3 3 2 2 2 2 2
10 8 5 4 6 6 7 8 7 6 6 8 7 6 6 7 11 11 12 12 11 11 10 10 10 10 8 8 8 8 8 8 6 3 3 4 5 5 5 5 5 5 6 5 5 4 4 3 3 3 2 2 3 2
9 10 5 5 5 5 7 9 8 8 8 8 6 6 7 8 11 13 13 13 13 13 12 11 11 11 8 7 7 6 7 6 6 6 5 4 5 5 4 4 4 4 4 4 3 3 3 3 4 3 2 2 2 2
10 10 7 6 5 7 9 10 10 10 10 10 10 8 7 8 10 10 11 11 11 11 11 10 9 9 8 6 6 5 6 5 3 4 4 4 4 4 4 3 4 4 3 3 2 2 2 1 1 1 1 0 -0 -0
11 7 5 4 6 9 11 11 10 10 10 9 9 8 9 9 8 9 10 11 10 10 9 10 10 10 8 6 6 6 4 4 3 3 3 3 4 3 2 2 3 3 2 2 1 1 0 0 1 1 0 -0 -1 -1
9 8 8 8 8 9 10 10 8 9 9 8 8 8 9 9 7 9 9 10 12 12 10 10 9 6 5 5 5 4 3 2 0 0 -2 -2 -2 -0 1 1 1 0 -0 -0 -0 -0 -1 -1 -1 -1 -2 -2 -3 -3